Location: Newark
(27.9675°N, 86.8869°E)
Time: 17:28:29
(UTC+00:00)

Altair - Pass Details

Date: 31 October 2019
Orbit: 1502 x 1682 km, 47.2° (Epoch: 13 November)

Event Time Altitude Azimuth Distance (km) Brightness Sun altitude
Rises 01:49:33 0° 240° (WSW) 4,626 9.7 17.1°
Reaches altitude 10° 01:52:36 10° 244° (WSW) 3,653 9.2 17.7°
Maximum altitude 02:01:40 62° 323° (NW) 1,693 7.8 19.5°
Drops below altitude 10° 02:11:03 10° 44° (NE) 3,765 9.8 21.3°
Sets 02:14:15 0° 47° (NE) 4,775 10.3 21.9°
